Location: Sabalos
(43.2860°N, 0.1414°E)
Time: 03:42:58
(UTC+00:00)

USA 215 - Pass Details

Date: 05 July 2020
Orbit: 1102 x 1106 km, 123.0° (Epoch: 31 July)

Event Time Altitude Azimuth Distance (km) Brightness Sun altitude
Rises 20:59:57 0° 51° (NE) 3,924 6.1 -11.6°
Reaches altitude 10° 21:02:31 10° 55° (NE) 2,964 5.5 -12.0°
Maximum altitude 21:08:56 57° 133° (SE) 1,286 3.3 -12.7°
Drops below altitude 10° 21:15:19 10° 211° (SSW) 2,952 5.3 -13.5°
Sets 21:17:51 0° 216° (SW) 3,907 6.0 -13.8°
